Year,Month,Day,Hour,Minute,Value (Times are PST for windspeed in km/hr)
2010,07,12,00,00,10.60
2010,07,12,00,01,7.40
2010,07,12,00,02,3.40
2010,07,12,00,03,3.60
2010,07,12,00,04,9.00
2010,07,12,00,05,7.40
2010,07,12,00,06,9.20
2010,07,12,00,07,19.60
2010,07,12,00,08,12.00
2010,07,12,00,09,8.20
2010,07,12,00,10,4.80
2010,07,12,00,11,9.20
2010,07,12,00,12,7.60
2010,07,12,00,13,8.60
2010,07,12,00,14,4.40
2010,07,12,00,15,4.20
2010,07,12,00,16,5.00
2010,07,12,00,17,6.60
2010,07,12,00,18,10.70
2010,07,12,00,19,9.20
2010,07,12,00,20,4.60
2010,07,12,00,21,7.90
2010,07,12,00,22,11.50
2010,07,12,00,23,10.20
2010,07,12,00,24,11.30
2010,07,12,00,25,9.40
2010,07,12,00,26,7.80
2010,07,12,00,27,10.90
2010,07,12,00,28,9.90
2010,07,12,00,29,16.90
2010,07,12,00,30,13.00
2010,07,12,00,31,8.00
2010,07,12,00,32,8.50
2010,07,12,00,33,6.90
2010,07,12,00,34,6.30
2010,07,12,00,35,8.20
2010,07,12,00,36,8.90
2010,07,12,00,37,6.80
2010,07,12,00,38,14.10
2010,07,12,00,39,7.90
2010,07,12,00,40,13.20
2010,07,12,00,41,12.30
2010,07,12,00,42,10.60
2010,07,12,00,43,8.30
2010,07,12,00,44,7.50
2010,07,12,00,45,15.20
2010,07,12,00,46,11.90
2010,07,12,00,47,10.50
2010,07,12,00,48,6.40
2010,07,12,00,49,6.20
2010,07,12,00,50,11.40
2010,07,12,00,51,6.00
2010,07,12,00,52,10.80
2010,07,12,00,53,11.40
2010,07,12,00,54,13.30
2010,07,12,00,55,8.90
2010,07,12,00,56,8.00
2010,07,12,00,57,4.60
2010,07,12,00,58,11.00
2010,07,12,00,59,8.40
2010,07,12,01,00,9.40
2010,07,12,01,01,8.90
2010,07,12,01,02,5.70
2010,07,12,01,03,3.50
2010,07,12,01,04,5.20
2010,07,12,01,05,13.00
2010,07,12,01,06,6.90
2010,07,12,01,07,5.10
2010,07,12,01,08,4.90
2010,07,12,01,09,13.10
2010,07,12,01,10,10.10
2010,07,12,01,11,9.30
2010,07,12,01,12,8.40
2010,07,12,01,13,17.90
2010,07,12,01,14,12.80
2010,07,12,01,15,8.40
2010,07,12,01,16,5.50
2010,07,12,01,17,11.00
2010,07,12,01,18,8.00
2010,07,12,01,19,3.70
2010,07,12,01,20,10.30
2010,07,12,01,21,5.30
2010,07,12,01,22,7.20
2010,07,12,01,23,4.00
2010,07,12,01,24,7.10
2010,07,12,01,25,7.30
2010,07,12,01,26,8.00
2010,07,12,01,27,6.20
2010,07,12,01,28,5.60
2010,07,12,01,29,6.10
2010,07,12,01,30,7.90
2010,07,12,01,31,6.90
2010,07,12,01,32,7.50
2010,07,12,01,33,15.30
2010,07,12,01,34,10.60
2010,07,12,01,35,15.00
2010,07,12,01,36,8.20
2010,07,12,01,37,6.00
2010,07,12,01,38,4.90
2010,07,12,01,39,12.30
2010,07,12,01,40,15.90
2010,07,12,01,41,18.30
2010,07,12,01,42,21.40
2010,07,12,01,43,18.30
2010,07,12,01,44,16.00
2010,07,12,01,45,12.00
2010,07,12,01,46,9.60
2010,07,12,01,47,12.10
2010,07,12,01,48,18.60
2010,07,12,01,49,14.30
2010,07,12,01,50,25.10
2010,07,12,01,51,10.80
2010,07,12,01,52,9.90
2010,07,12,01,53,9.70
2010,07,12,01,54,3.90
2010,07,12,01,55,18.90
2010,07,12,01,56,17.50
2010,07,12,01,57,21.90
2010,07,12,01,58,7.50
2010,07,12,01,59,6.90
2010,07,12,02,00,22.90
2010,07,12,02,01,11.70
2010,07,12,02,02,11.30
2010,07,12,02,03,14.90
2010,07,12,02,04,13.00
2010,07,12,02,05,15.30
2010,07,12,02,06,19.10
2010,07,12,02,07,10.80
2010,07,12,02,08,5.90
2010,07,12,02,09,6.40
2010,07,12,02,10,19.90
2010,07,12,02,11,10.20
2010,07,12,02,12,19.70
2010,07,12,02,13,11.80
2010,07,12,02,14,16.70
2010,07,12,02,15,18.20
2010,07,12,02,16,9.90
2010,07,12,02,17,15.20
2010,07,12,02,18,24.90
2010,07,12,02,19,13.10
2010,07,12,02,20,20.80
2010,07,12,02,21,14.10
2010,07,12,02,22,13.80
2010,07,12,02,23,19.00
2010,07,12,02,24,14.20
2010,07,12,02,25,20.70
2010,07,12,02,26,13.60
2010,07,12,02,27,11.30
2010,07,12,02,28,20.90
2010,07,12,02,29,13.30
2010,07,12,02,30,15.00
2010,07,12,02,31,19.10
2010,07,12,02,32,19.30
2010,07,12,02,33,12.60
2010,07,12,02,34,19.10
2010,07,12,02,35,17.70
2010,07,12,02,36,20.30
2010,07,12,02,37,17.10
2010,07,12,02,38,19.60
2010,07,12,02,39,11.90
2010,07,12,02,40,11.90
2010,07,12,02,41,20.90
2010,07,12,02,42,18.30
2010,07,12,02,43,15.00
2010,07,12,02,44,13.80
2010,07,12,02,45,16.70
2010,07,12,02,46,19.70
2010,07,12,02,47,12.20
2010,07,12,02,48,15.80
2010,07,12,02,49,12.40
2010,07,12,02,50,10.70
2010,07,12,02,51,9.70
2010,07,12,02,52,15.10
2010,07,12,02,53,15.30
2010,07,12,02,54,16.30
2010,07,12,02,55,9.30
2010,07,12,02,56,8.20
2010,07,12,02,57,13.00
2010,07,12,02,58,20.30
2010,07,12,02,59,10.60
2010,07,12,03,00,9.10
2010,07,12,03,01,13.40
2010,07,12,03,02,7.40
2010,07,12,03,03,8.60
2010,07,12,03,04,14.10
2010,07,12,03,05,15.90
2010,07,12,03,06,14.40
2010,07,12,03,07,18.70
2010,07,12,03,08,11.80
2010,07,12,03,09,17.20
2010,07,12,03,10,13.60
2010,07,12,03,11,21.00
2010,07,12,03,12,10.30
2010,07,12,03,13,7.30
2010,07,12,03,14,21.20
2010,07,12,03,15,9.70
2010,07,12,03,16,13.60
2010,07,12,03,17,14.70
2010,07,12,03,18,16.00
2010,07,12,03,19,18.30
2010,07,12,03,20,11.50
2010,07,12,03,21,13.10
2010,07,12,03,22,6.40
2010,07,12,03,23,8.30
2010,07,12,03,24,4.90
2010,07,12,03,25,4.50
2010,07,12,03,26,4.90
2010,07,12,03,27,10.50
2010,07,12,03,28,7.70
2010,07,12,03,29,10.90
2010,07,12,03,30,9.80
2010,07,12,03,31,16.90
2010,07,12,03,32,11.10
2010,07,12,03,33,7.50
2010,07,12,03,34,7.80
2010,07,12,03,35,4.70
2010,07,12,03,36,3.80
2010,07,12,03,37,7.00
2010,07,12,03,38,12.70
2010,07,12,03,39,9.70
2010,07,12,03,40,11.80
2010,07,12,03,41,12.40
2010,07,12,03,42,10.70
2010,07,12,03,43,14.20
2010,07,12,03,44,13.00
2010,07,12,03,45,15.60
2010,07,12,03,46,11.00
2010,07,12,03,47,9.90
2010,07,12,03,48,15.70
2010,07,12,03,49,12.40
2010,07,12,03,50,7.50
2010,07,12,03,51,9.60
2010,07,12,03,52,6.00
2010,07,12,03,53,4.70
2010,07,12,03,54,5.20
2010,07,12,03,55,13.00
2010,07,12,03,56,13.80
2010,07,12,03,57,6.20
2010,07,12,03,58,18.10
2010,07,12,03,59,11.30
2010,07,12,04,00,7.60
2010,07,12,04,01,13.00
2010,07,12,04,02,17.30
2010,07,12,04,03,11.30
2010,07,12,04,04,13.00
2010,07,12,04,05,10.90
2010,07,12,04,06,11.80
2010,07,12,04,07,12.50
2010,07,12,04,08,5.80
2010,07,12,04,09,9.40
2010,07,12,04,10,20.60
2010,07,12,04,11,16.90
2010,07,12,04,12,7.50
2010,07,12,04,13,7.50
2010,07,12,04,14,12.00
2010,07,12,04,15,14.70
2010,07,12,04,16,8.40
2010,07,12,04,17,6.10
2010,07,12,04,18,3.10
2010,07,12,04,19,2.70
2010,07,12,04,20,7.40
2010,07,12,04,21,11.40
2010,07,12,04,22,14.60
2010,07,12,04,23,9.70
2010,07,12,04,24,7.40
2010,07,12,04,25,12.80
2010,07,12,04,26,6.00
2010,07,12,04,27,8.10
2010,07,12,04,28,9.30
2010,07,12,04,29,5.80
2010,07,12,04,30,7.00
2010,07,12,04,31,14.10
2010,07,12,04,32,10.50
2010,07,12,04,33,16.90
2010,07,12,04,34,15.50
2010,07,12,04,35,16.80
2010,07,12,04,36,11.60
2010,07,12,04,37,13.40
2010,07,12,04,38,7.30
2010,07,12,04,39,6.30
2010,07,12,04,40,7.60
2010,07,12,04,41,8.40
2010,07,12,04,42,18.70
2010,07,12,04,43,12.20
2010,07,12,04,44,12.70
2010,07,12,04,45,10.80
2010,07,12,04,46,5.20
2010,07,12,04,47,14.40
2010,07,12,04,48,9.30
2010,07,12,04,49,15.80
2010,07,12,04,50,11.80
2010,07,12,04,51,11.90
2010,07,12,04,52,10.50
2010,07,12,04,53,9.70
2010,07,12,04,54,4.10
2010,07,12,04,55,5.30
2010,07,12,04,56,6.40
2010,07,12,04,57,19.40
2010,07,12,04,58,8.80
2010,07,12,04,59,9.20
2010,07,12,05,00,8.00
2010,07,12,05,01,4.90
2010,07,12,05,02,4.10
2010,07,12,05,03,5.90
2010,07,12,05,04,4.30
2010,07,12,05,05,10.10
2010,07,12,05,06,7.70
2010,07,12,05,07,4.80
2010,07,12,05,08,12.50
2010,07,12,05,09,6.20
2010,07,12,05,10,10.20
2010,07,12,05,11,10.10
2010,07,12,05,12,12.30
2010,07,12,05,13,10.50
2010,07,12,05,14,16.60
2010,07,12,05,15,9.50
2010,07,12,05,16,7.10
2010,07,12,05,17,7.10
2010,07,12,05,18,16.00
2010,07,12,05,19,8.30
2010,07,12,05,20,4.30
2010,07,12,05,21,4.40
2010,07,12,05,22,2.50
2010,07,12,05,23,3.70
2010,07,12,05,24,3.00
2010,07,12,05,25,12.60
2010,07,12,05,26,6.90
2010,07,12,05,27,13.10
2010,07,12,05,28,12.80
2010,07,12,05,29,6.80
2010,07,12,05,30,10.70
2010,07,12,05,31,10.00
2010,07,12,05,32,10.80
2010,07,12,05,33,9.60
2010,07,12,05,34,16.30
2010,07,12,05,35,14.20
2010,07,12,05,36,5.60
2010,07,12,05,37,6.60
2010,07,12,05,38,9.60
2010,07,12,05,39,15.10
2010,07,12,05,40,11.60
2010,07,12,05,41,10.20
2010,07,12,05,42,12.20
2010,07,12,05,43,12.10
2010,07,12,05,44,10.30
2010,07,12,05,45,6.30
2010,07,12,05,46,10.30
2010,07,12,05,47,7.90
2010,07,12,05,48,3.60
2010,07,12,05,49,7.80
2010,07,12,05,50,10.10
2010,07,12,05,51,12.10
2010,07,12,05,52,10.80
2010,07,12,05,53,13.00
2010,07,12,05,54,10.50
2010,07,12,05,55,13.40
2010,07,12,05,56,6.40
2010,07,12,05,57,12.90
2010,07,12,05,58,16.40
2010,07,12,05,59,14.30
2010,07,12,06,00,10.90
2010,07,12,06,01,8.60
2010,07,12,06,02,8.00
2010,07,12,06,03,13.40
2010,07,12,06,04,5.10
2010,07,12,06,05,9.40
2010,07,12,06,06,13.80
2010,07,12,06,07,13.90
2010,07,12,06,08,7.80
2010,07,12,06,09,10.80
2010,07,12,06,10,8.30
2010,07,12,06,11,9.10
2010,07,12,06,12,22.80
2010,07,12,06,13,24.50
2010,07,12,06,14,13.50
2010,07,12,06,15,16.60
2010,07,12,06,16,10.10
2010,07,12,06,17,13.60
2010,07,12,06,18,16.40
2010,07,12,06,19,11.90
2010,07,12,06,20,12.40
2010,07,12,06,21,13.80
2010,07,12,06,22,9.80
2010,07,12,06,23,8.50
2010,07,12,06,24,5.10
2010,07,12,06,25,14.20
2010,07,12,06,26,18.40
2010,07,12,06,27,9.60
2010,07,12,06,28,19.50
2010,07,12,06,29,9.00
2010,07,12,06,30,6.40
2010,07,12,06,31,5.90
2010,07,12,06,32,4.70
2010,07,12,06,33,20.70
2010,07,12,06,34,17.00
2010,07,12,06,35,18.10
2010,07,12,06,36,13.20
2010,07,12,06,37,16.40
2010,07,12,06,38,14.70
2010,07,12,06,39,7.30
2010,07,12,06,40,3.10
2010,07,12,06,41,3.80
2010,07,12,06,42,6.10
2010,07,12,06,43,3.70
2010,07,12,06,44,2.60
2010,07,12,06,45,5.00
2010,07,12,06,46,7.10
2010,07,12,06,47,6.90
2010,07,12,06,48,2.40
2010,07,12,06,49,5.80
2010,07,12,06,50,7.90
2010,07,12,06,51,5.50
2010,07,12,06,52,2.60
2010,07,12,06,53,2.40
2010,07,12,06,54,2.40
2010,07,12,06,55,3.80
2010,07,12,06,56,2.70
2010,07,12,06,57,0.60
2010,07,12,06,58,4.40
2010,07,12,06,59,4.30
2010,07,12,07,00,5.80
2010,07,12,07,01,6.00
2010,07,12,07,02,5.40
2010,07,12,07,03,4.00
2010,07,12,07,04,4.70
2010,07,12,07,05,5.60
2010,07,12,07,06,8.20
2010,07,12,07,07,5.70
2010,07,12,07,08,15.60
2010,07,12,07,09,13.30
2010,07,12,07,10,5.10
2010,07,12,07,11,6.40
2010,07,12,07,12,5.10
2010,07,12,07,13,5.20
2010,07,12,07,14,3.60
2010,07,12,07,15,8.70
2010,07,12,07,16,7.10
2010,07,12,07,17,10.30
2010,07,12,07,18,9.30
2010,07,12,07,19,9.00
2010,07,12,07,20,9.00
2010,07,12,07,21,7.30
2010,07,12,07,22,7.20
2010,07,12,07,23,7.40
2010,07,12,07,24,5.30
2010,07,12,07,25,4.30
2010,07,12,07,26,4.50
2010,07,12,07,27,3.30
2010,07,12,07,28,8.00
2010,07,12,07,29,6.40
2010,07,12,07,30,1.90
2010,07,12,07,31,0.00
2010,07,12,07,32,1.80
2010,07,12,07,33,0.80
2010,07,12,07,34,4.80
2010,07,12,07,35,3.00
2010,07,12,07,36,5.60
2010,07,12,07,37,3.90
2010,07,12,07,38,4.70
2010,07,12,07,39,3.70
2010,07,12,07,40,3.20
2010,07,12,07,41,4.60
2010,07,12,07,42,2.10
2010,07,12,07,43,3.20
2010,07,12,07,44,4.10
2010,07,12,07,45,5.30
2010,07,12,07,46,4.50
2010,07,12,07,47,6.90
2010,07,12,07,48,3.90
2010,07,12,07,49,4.90
2010,07,12,07,50,7.70
2010,07,12,07,51,8.40
2010,07,12,07,52,8.90
2010,07,12,07,53,8.80
2010,07,12,07,54,12.40
2010,07,12,07,55,7.40
2010,07,12,07,56,4.10
2010,07,12,07,57,4.60
2010,07,12,07,58,5.90
2010,07,12,07,59,7.90
2010,07,12,08,00,8.00
2010,07,12,08,01,3.70
2010,07,12,08,02,3.00
2010,07,12,08,03,6.20
2010,07,12,08,04,18.70
2010,07,12,08,05,12.10
2010,07,12,08,06,8.80
2010,07,12,08,07,8.90
2010,07,12,08,08,8.80
2010,07,12,08,09,7.40
2010,07,12,08,10,5.10
2010,07,12,08,11,2.80
2010,07,12,08,12,3.10
2010,07,12,08,13,3.30
2010,07,12,08,14,7.50
2010,07,12,08,15,6.60
2010,07,12,08,16,3.20
2010,07,12,08,17,3.80
2010,07,12,08,18,2.30
2010,07,12,08,19,1.90
2010,07,12,08,20,3.10
2010,07,12,08,21,3.30
2010,07,12,08,22,4.00
2010,07,12,08,23,3.60
2010,07,12,08,24,3.50
2010,07,12,08,25,2.00
2010,07,12,08,26,0.70
2010,07,12,08,27,2.90
2010,07,12,08,28,7.50
2010,07,12,08,29,6.70
2010,07,12,08,30,4.30
2010,07,12,08,31,4.70
2010,07,12,08,32,4.60
2010,07,12,08,33,4.70
2010,07,12,08,34,4.60
2010,07,12,08,35,2.10
2010,07,12,08,36,1.70
2010,07,12,08,37,5.60
2010,07,12,08,38,7.90
2010,07,12,08,39,3.60
2010,07,12,08,40,6.00
2010,07,12,08,41,8.70
2010,07,12,08,42,5.90
2010,07,12,08,43,4.40
2010,07,12,08,44,2.70
2010,07,12,08,45,3.90
2010,07,12,08,46,4.90
2010,07,12,08,47,7.00
2010,07,12,08,48,6.00
2010,07,12,08,49,5.90
2010,07,12,08,50,6.40
2010,07,12,08,51,3.00
2010,07,12,08,52,3.20
2010,07,12,08,53,4.10
2010,07,12,08,54,7.10
2010,07,12,08,55,2.90
2010,07,12,08,56,3.10
2010,07,12,08,57,4.70
2010,07,12,08,58,1.20
2010,07,12,08,59,4.10
2010,07,12,09,00,6.40
2010,07,12,09,01,4.70
2010,07,12,09,02,5.70
2010,07,12,09,03,6.00
2010,07,12,09,04,5.30
2010,07,12,09,05,10.20
2010,07,12,09,06,9.40
2010,07,12,09,07,9.50
2010,07,12,09,08,10.70
2010,07,12,09,09,11.40
2010,07,12,09,10,11.40
2010,07,12,09,11,6.90
2010,07,12,09,12,8.00
2010,07,12,09,13,9.80
2010,07,12,09,14,8.60
2010,07,12,09,15,9.90
2010,07,12,09,16,11.80
2010,07,12,09,17,15.20
2010,07,12,09,18,13.40
2010,07,12,09,19,16.40
2010,07,12,09,20,18.50
2010,07,12,09,21,16.30
2010,07,12,09,22,12.20
2010,07,12,09,23,13.20
2010,07,12,09,24,16.70
2010,07,12,09,25,17.60
2010,07,12,09,26,16.10
2010,07,12,09,27,22.60
2010,07,12,09,28,14.10
2010,07,12,09,29,12.60
2010,07,12,09,30,18.00
2010,07,12,09,31,15.90
2010,07,12,09,32,16.30
2010,07,12,09,33,15.10
2010,07,12,09,34,13.60
2010,07,12,09,35,12.70
2010,07,12,09,36,12.30
2010,07,12,09,37,19.00
2010,07,12,09,38,23.30
2010,07,12,09,39,18.00
2010,07,12,09,40,17.70
2010,07,12,09,41,15.50
2010,07,12,09,42,16.90
2010,07,12,09,43,18.10
2010,07,12,09,44,22.10
2010,07,12,09,45,18.40
2010,07,12,09,46,14.00
2010,07,12,09,47,17.70
2010,07,12,09,48,20.20
2010,07,12,09,49,14.30
2010,07,12,09,50,13.90
2010,07,12,09,51,15.90
2010,07,12,09,52,20.00
2010,07,12,09,53,16.80
2010,07,12,09,54,21.30
2010,07,12,09,55,20.60
2010,07,12,09,56,22.30
2010,07,12,09,57,23.30
2010,07,12,09,58,24.60
2010,07,12,09,59,20.30
2010,07,12,10,00,21.00
2010,07,12,10,01,20.80
2010,07,12,10,02,17.20
2010,07,12,10,03,18.10
2010,07,12,10,04,14.10
2010,07,12,10,05,26.80
2010,07,12,10,06,19.30
2010,07,12,10,07,17.30
2010,07,12,10,08,16.80
2010,07,12,10,09,18.70
2010,07,12,10,10,18.90
2010,07,12,10,11,21.90
2010,07,12,10,12,17.90
2010,07,12,10,13,19.60
2010,07,12,10,14,17.20
2010,07,12,10,15,16.70
2010,07,12,10,16,17.10
2010,07,12,10,17,12.90
2010,07,12,10,18,10.60
2010,07,12,10,19,16.80
2010,07,12,10,20,12.50
2010,07,12,10,21,13.30
2010,07,12,10,22,13.90
2010,07,12,10,23,15.10
2010,07,12,10,24,15.40
2010,07,12,10,25,16.90
2010,07,12,10,26,15.30
2010,07,12,10,27,19.80
2010,07,12,10,28,17.60
2010,07,12,10,29,15.00
2010,07,12,10,30,15.30
2010,07,12,10,31,13.30
2010,07,12,10,32,10.90
2010,07,12,10,33,11.40
2010,07,12,10,34,11.00
2010,07,12,10,35,13.10
2010,07,12,10,36,11.10
2010,07,12,10,37,15.30
2010,07,12,10,38,8.10
2010,07,12,10,39,16.60
2010,07,12,10,40,17.90
2010,07,12,10,41,18.30
2010,07,12,10,42,17.20
2010,07,12,10,43,15.30
2010,07,12,10,44,16.30
2010,07,12,10,45,22.90
2010,07,12,10,46,15.00
2010,07,12,10,47,14.70
2010,07,12,10,48,11.40
2010,07,12,10,49,12.40
2010,07,12,10,50,19.10
2010,07,12,10,51,11.10
2010,07,12,10,52,18.70
2010,07,12,10,53,15.10
2010,07,12,10,54,14.50
2010,07,12,10,55,15.30
2010,07,12,10,56,18.00
2010,07,12,10,57,18.80
2010,07,12,10,58,17.40
2010,07,12,10,59,24.30
2010,07,12,11,00,19.50
2010,07,12,11,01,15.20
2010,07,12,11,02,17.10
2010,07,12,11,03,13.30
2010,07,12,11,04,19.90
2010,07,12,11,05,16.40
2010,07,12,11,06,15.90
2010,07,12,11,07,18.30
2010,07,12,11,08,19.60
2010,07,12,11,09,16.00
2010,07,12,11,10,18.90
2010,07,12,11,11,12.60
2010,07,12,11,12,23.10
2010,07,12,11,13,21.20
2010,07,12,11,14,19.10
2010,07,12,11,15,17.90
2010,07,12,11,16,22.50
2010,07,12,11,17,20.20
2010,07,12,11,18,20.50
2010,07,12,11,19,13.00
2010,07,12,11,20,13.10
2010,07,12,11,21,10.80
2010,07,12,11,22,20.10
2010,07,12,11,23,16.60
2010,07,12,11,24,24.20
2010,07,12,11,25,30.70
2010,07,12,11,26,19.90
2010,07,12,11,27,8.60
2010,07,12,11,28,14.80
2010,07,12,11,29,20.40
2010,07,12,11,30,21.10
2010,07,12,11,31,13.40
2010,07,12,11,32,17.70
2010,07,12,11,33,17.10
2010,07,12,11,34,18.10
2010,07,12,11,35,17.40
2010,07,12,11,36,18.50
2010,07,12,11,37,8.10
2010,07,12,11,38,13.60
2010,07,12,11,39,17.20
2010,07,12,11,40,22.60
2010,07,12,11,41,21.60
2010,07,12,11,42,14.10
2010,07,12,11,43,17.50
2010,07,12,11,44,22.40
2010,07,12,11,45,20.70
2010,07,12,11,46,19.30
2010,07,12,11,47,25.30
2010,07,12,11,48,14.10
2010,07,12,11,49,16.30
2010,07,12,11,50,23.50
2010,07,12,11,51,23.60
2010,07,12,11,52,28.30
2010,07,12,11,53,17.20
2010,07,12,11,54,22.80
2010,07,12,11,55,18.00
2010,07,12,11,56,14.10
2010,07,12,11,57,22.30
2010,07,12,11,58,18.50
2010,07,12,11,59,13.60
2010,07,12,12,00,13.00
2010,07,12,12,01,22.10
2010,07,12,12,02,19.60
2010,07,12,12,03,21.40
2010,07,12,12,04,17.50
2010,07,12,12,05,14.60
2010,07,12,12,06,19.10
2010,07,12,12,07,23.40
2010,07,12,12,08,16.20
2010,07,12,12,09,17.60
2010,07,12,12,10,16.30
2010,07,12,12,11,22.20
2010,07,12,12,12,18.70
2010,07,12,12,13,16.60
2010,07,12,12,14,12.40
2010,07,12,12,15,13.60
2010,07,12,12,16,16.60
2010,07,12,12,17,13.40
2010,07,12,12,18,11.70
2010,07,12,12,19,8.90
2010,07,12,12,20,12.20
2010,07,12,12,21,9.30
2010,07,12,12,22,13.40
2010,07,12,12,23,13.00
2010,07,12,12,24,14.40
2010,07,12,12,25,16.90
2010,07,12,12,26,16.50
2010,07,12,12,27,14.90
2010,07,12,12,28,9.40
2010,07,12,12,29,13.00
2010,07,12,12,30,16.10
2010,07,12,12,31,10.80
2010,07,12,12,32,16.80
2010,07,12,12,33,18.90
2010,07,12,12,34,10.40
2010,07,12,12,35,17.20
2010,07,12,12,36,20.50
2010,07,12,12,37,15.30
2010,07,12,12,38,15.30
2010,07,12,12,39,17.90
2010,07,12,12,40,17.60
2010,07,12,12,41,14.60
2010,07,12,12,42,19.70
2010,07,12,12,43,19.30
2010,07,12,12,44,10.50
2010,07,12,12,45,20.90
2010,07,12,12,46,23.20
2010,07,12,12,47,15.40
2010,07,12,12,48,18.00
2010,07,12,12,49,18.00
2010,07,12,12,50,13.90
2010,07,12,12,51,10.60
2010,07,12,12,52,17.30
2010,07,12,12,53,21.10
2010,07,12,12,54,21.70
2010,07,12,12,55,21.70
2010,07,12,12,56,19.90
2010,07,12,12,57,17.20
2010,07,12,12,58,14.30
2010,07,12,12,59,19.70
2010,07,12,13,00,9.90
2010,07,12,13,01,21.50
2010,07,12,13,02,16.90
2010,07,12,13,03,23.40
2010,07,12,13,04,23.10
2010,07,12,13,05,18.60
2010,07,12,13,06,17.90
2010,07,12,13,07,20.80
2010,07,12,13,08,22.50
2010,07,12,13,09,19.20
2010,07,12,13,10,14.50
2010,07,12,13,11,17.90
2010,07,12,13,12,11.50
2010,07,12,13,13,15.30
2010,07,12,13,14,14.30
2010,07,12,13,15,17.40
2010,07,12,13,16,23.30
2010,07,12,13,17,17.30
2010,07,12,13,18,16.00
2010,07,12,13,19,15.60
2010,07,12,13,20,12.10
2010,07,12,13,21,19.20
2010,07,12,13,22,14.20
2010,07,12,13,23,20.20
2010,07,12,13,24,21.10
2010,07,12,13,25,13.50
2010,07,12,13,26,18.70
2010,07,12,13,27,17.30
2010,07,12,13,28,14.40
2010,07,12,13,29,14.60
2010,07,12,13,30,11.30
2010,07,12,13,31,17.10
2010,07,12,13,32,10.60
2010,07,12,13,33,12.00
2010,07,12,13,34,12.50
2010,07,12,13,35,15.30
2010,07,12,13,36,19.80
2010,07,12,13,37,10.20
2010,07,12,13,38,20.70
2010,07,12,13,39,19.70
2010,07,12,13,40,13.60
2010,07,12,13,41,14.20
2010,07,12,13,42,11.90
2010,07,12,13,43,8.90
2010,07,12,13,44,16.70
2010,07,12,13,45,16.20
2010,07,12,13,46,7.70
2010,07,12,13,47,9.30
2010,07,12,13,48,10.80
2010,07,12,13,49,6.80
2010,07,12,13,50,9.10
2010,07,12,13,51,11.70
2010,07,12,13,52,17.70
2010,07,12,13,53,14.10
2010,07,12,13,54,6.90
2010,07,12,13,55,12.40
2010,07,12,13,56,6.70
2010,07,12,13,57,10.60
2010,07,12,13,58,9.20
2010,07,12,13,59,13.40
2010,07,12,14,00,8.50
2010,07,12,14,01,9.10
2010,07,12,14,02,11.20
2010,07,12,14,03,7.60
2010,07,12,14,04,15.60
2010,07,12,14,05,18.60
2010,07,12,14,06,13.00
2010,07,12,14,07,14.90
2010,07,12,14,08,11.70
2010,07,12,14,09,18.20
2010,07,12,14,10,19.40
2010,07,12,14,11,15.90
2010,07,12,14,12,10.80
2010,07,12,14,13,15.10
2010,07,12,14,14,15.00
2010,07,12,14,15,29.90
2010,07,12,14,16,11.30
2010,07,12,14,17,13.10
2010,07,12,14,18,17.10
2010,07,12,14,19,15.10
2010,07,12,14,20,20.20
2010,07,12,14,21,16.90
2010,07,12,14,22,13.10
2010,07,12,14,23,18.30
2010,07,12,14,24,27.00
2010,07,12,14,25,20.30
2010,07,12,14,26,16.30
2010,07,12,14,27,15.80
2010,07,12,14,28,17.40
2010,07,12,14,29,13.90
2010,07,12,14,30,20.80
2010,07,12,14,31,17.80
2010,07,12,14,32,23.00
2010,07,12,14,33,16.20
2010,07,12,14,34,15.40
2010,07,12,14,35,16.00
2010,07,12,14,36,21.60
2010,07,12,14,37,24.60
2010,07,12,14,38,17.20
2010,07,12,14,39,18.70
2010,07,12,14,40,15.50
2010,07,12,14,41,24.10
2010,07,12,14,42,21.90
2010,07,12,14,43,23.60
2010,07,12,14,44,20.60
2010,07,12,14,45,14.80
2010,07,12,14,46,7.50
2010,07,12,14,47,6.20
2010,07,12,14,48,16.00
2010,07,12,14,49,14.40
2010,07,12,14,50,14.90
2010,07,12,14,51,9.10
2010,07,12,14,52,15.40
2010,07,12,14,53,18.00
2010,07,12,14,54,22.20
2010,07,12,14,55,23.50
2010,07,12,14,56,19.30
2010,07,12,14,57,20.80
2010,07,12,14,58,26.60
2010,07,12,14,59,22.40
2010,07,12,15,00,22.60
2010,07,12,15,01,13.50
2010,07,12,15,02,22.20
2010,07,12,15,03,18.60
2010,07,12,15,04,21.30
2010,07,12,15,05,21.50
2010,07,12,15,06,29.60
2010,07,12,15,07,17.70
2010,07,12,15,08,22.80
2010,07,12,15,09,15.90
2010,07,12,15,10,22.40
2010,07,12,15,11,18.40
2010,07,12,15,12,25.00
2010,07,12,15,13,22.60
2010,07,12,15,14,21.70
2010,07,12,15,15,20.80
2010,07,12,15,16,13.40
2010,07,12,15,17,23.90
2010,07,12,15,18,9.80
2010,07,12,15,19,10.80
2010,07,12,15,20,13.00
2010,07,12,15,21,15.50
2010,07,12,15,22,18.60
2010,07,12,15,23,11.40
2010,07,12,15,24,17.70
2010,07,12,15,25,12.50
2010,07,12,15,26,18.00
2010,07,12,15,27,22.20
2010,07,12,15,28,18.00
2010,07,12,15,29,26.10
2010,07,12,15,30,24.10
2010,07,12,15,31,14.40
2010,07,12,15,32,22.30
2010,07,12,15,33,29.80
2010,07,12,15,34,29.00
2010,07,12,15,35,15.80
2010,07,12,15,36,20.40
2010,07,12,15,37,14.70
2010,07,12,15,38,17.70
2010,07,12,15,39,20.30
2010,07,12,15,40,16.00
2010,07,12,15,41,18.30
2010,07,12,15,42,18.70
2010,07,12,15,43,24.00
2010,07,12,15,44,16.00
2010,07,12,15,45,20.10
2010,07,12,15,46,19.50
2010,07,12,15,47,17.10
2010,07,12,15,48,8.20
2010,07,12,15,49,16.00
2010,07,12,15,50,19.30
2010,07,12,15,51,23.40
2010,07,12,15,52,16.90
2010,07,12,15,53,19.30
2010,07,12,15,54,24.40
2010,07,12,15,55,20.30
2010,07,12,15,56,24.30
2010,07,12,15,57,15.30
2010,07,12,15,58,10.80
2010,07,12,15,59,22.60
2010,07,12,16,00,13.60
2010,07,12,16,01,9.00
2010,07,12,16,02,18.70
2010,07,12,16,03,17.80
2010,07,12,16,04,19.60
2010,07,12,16,05,22.20
2010,07,12,16,06,18.50
2010,07,12,16,07,14.50
2010,07,12,16,08,18.60
2010,07,12,16,09,20.60
2010,07,12,16,10,24.20
2010,07,12,16,11,22.00
2010,07,12,16,12,20.40
2010,07,12,16,13,26.40
2010,07,12,16,14,21.80
2010,07,12,16,15,18.90
2010,07,12,16,16,15.20
2010,07,12,16,17,18.40
2010,07,12,16,18,17.40
2010,07,12,16,19,29.40
2010,07,12,16,20,11.10
2010,07,12,16,21,16.70
2010,07,12,16,22,15.80
2010,07,12,16,23,22.30
2010,07,12,16,24,13.00
2010,07,12,16,25,19.20
2010,07,12,16,26,19.20
2010,07,12,16,27,13.50
2010,07,12,16,28,15.80
2010,07,12,16,29,18.00
2010,07,12,16,30,16.70
2010,07,12,16,31,27.60
2010,07,12,16,32,19.50
2010,07,12,16,33,22.90
2010,07,12,16,34,25.40
2010,07,12,16,35,28.30
2010,07,12,16,36,19.10
2010,07,12,16,37,21.70
2010,07,12,16,38,29.10
2010,07,12,16,39,20.70
2010,07,12,16,40,15.40
2010,07,12,16,41,20.50
2010,07,12,16,42,14.80
2010,07,12,16,43,12.00
2010,07,12,16,44,15.90
2010,07,12,16,45,22.30
2010,07,12,16,46,21.70
2010,07,12,16,47,13.60
2010,07,12,16,48,18.10
2010,07,12,16,49,15.70
2010,07,12,16,50,19.10
2010,07,12,16,51,28.20
2010,07,12,16,52,24.10
2010,07,12,16,53,15.30
2010,07,12,16,54,13.50
2010,07,12,16,55,23.50
2010,07,12,16,56,20.80
2010,07,12,16,57,18.50
2010,07,12,16,58,23.00
2010,07,12,16,59,19.20
2010,07,12,17,00,18.70
2010,07,12,17,01,18.70
2010,07,12,17,02,15.20
2010,07,12,17,03,20.20
2010,07,12,17,04,12.50
2010,07,12,17,05,16.90
2010,07,12,17,06,19.60
2010,07,12,17,07,13.90
2010,07,12,17,08,14.50
2010,07,12,17,09,17.30
2010,07,12,17,10,16.00
2010,07,12,17,11,19.00
2010,07,12,17,12,13.60
2010,07,12,17,13,13.30
2010,07,12,17,14,19.80
2010,07,12,17,15,11.90
2010,07,12,17,16,20.50
2010,07,12,17,17,16.90
2010,07,12,17,18,24.00
2010,07,12,17,19,16.40
2010,07,12,17,20,21.70
2010,07,12,17,21,15.80
2010,07,12,17,22,12.30
2010,07,12,17,23,11.80
2010,07,12,17,24,16.20
2010,07,12,17,25,12.60
2010,07,12,17,26,11.00
2010,07,12,17,27,20.00
2010,07,12,17,28,19.30
2010,07,12,17,29,22.00
2010,07,12,17,30,12.80
2010,07,12,17,31,13.60
2010,07,12,17,32,16.20
2010,07,12,17,33,17.80
2010,07,12,17,34,12.50